Terminal Aerodrome Forecast
Issued by NWS Charleston, WV

Current Version | Previous Version | Graphics & Text | Print | Product List | Glossary On
Versions: 1 2 3 4 5 6 7 8 9 10 11 12 13 14 15 16 17 18 19 20 21
000
FTUS41 KRLX 180900 AAA
TAFHTS
TAF AMD
KHTS 180911Z 1809/1906 27009G18KT P6SM OVC050
     FM181700 29009G14KT P6SM BKN020
     FM190000 31008KT P6SM OVC019
     FM190200 31007KT P6SM BKN015=

USA.gov is the U.S. government's official web portal to all federal, state and local government web resources and services.